User: anonymous   Login
Location: Unspecified
(0.0000°N, 0.0000°E)
Time: 00:13:40
(UTC+00:00)
Language:

TBA - TO BE ASSIGNED - Orbit

View from above orbital plane
View from above orbital plane
View from above satellite
View from above satellite

Ground track
Ground track

The orbit is defined by the following mean orbital elements,

1 68498U          26145.39310382 +.00000000 +00000-0 +11608-3 0 00004
2 68498  97.7534 103.9305 0003921 117.7457 242.4159 14.91392047    07
Epoch (UTC): 25 May 2026 09:26:04
Eccentricity: 0.0003921
inclination: 97.7534°
perigee height: 591 km
apogee height: 596 km
right ascension of ascending node: 103.9305°
argument of perigee: 117.7457°
revolutions per day: 14.91392047
mean anomaly at epoch: 242.4159°

The dashed part of the orbit path shows where the satellite is in the earth's shadow,  

DLR